[[{"header":{"parameterUnit":"m.s-1","parameterCategory":1,"la1":30.2991,"la2":30.254,"lo1":-89.0895,"lo2":-89.0444,"dy":0.0017,"dx":0.0017,"nx":28,"ny":28,"refTime":"2026-02-06T03:00:00:Z","depth":0,"parameterNumber":2,"parameterNumberName":"U-component_of_WINDS"},"data":[0,0,0,0,0,0,0,0,0,0,0,0,0,0,0,0,0,0,0,0,0,0,0,0,0,0,0,0,0,0,0,0,0,0,0,0,0,0,0,0,0,0,0,0,0,0,0,0,0,0,0,0,0,0,0,0,0,0,-0.8069,-0.8069,0,-0.8052,-0.8052,-0.8052,-0.8014,-0.8014,-0.8013,-0.8012,-0.7996,-0.7996,-0.7997,0,0,0,0,0,0,0,0,0,0,0,0,0,-0.8069,-0.8069,-0.8069,-0.8069,-0.8069,-0.8052,-0.8052,-0.8052,-0.8014,-0.8013,-0.8013,-0.8012,-0.7996,-0.7996,-0.7997,0,0,0,0,0,0,0,0,0,0,0,0,0,-0.8062,-0.8069,-0.8069,-0.8048,-0.8046,-0.8053,-0.8052,-0.8052,-0.8015,-0.8013,-0.8012,-0.8011,-0.7996,-0.7996,-0.7997,-0.8023,0,0,-0.7998,-0.7998,0,0,0,0,0,0,0,0,-0.8063,-0.8062,-0.8051,-0.805,-0.8047,-0.8034,-0.8046,-0.8042,-0.8015,-0.8027,-0.8012,-0.8011,-0.801,-0.8009,-0.8009,-0.8022,-0.8022,-0.7998,-0.7999,-0.7999,-0.7999,0,0,0,0,0,0,0,-0.8063,-0.8063,-0.8063,-0.8051,-0.8049,-0.8039,-0.8037,-0.8045,-0.8025,-0.8025,-0.8023,-0.8021,-0.8009,-0.8008,-0.8008,-0.8021,-0.7998,-0.7999,-0.7999,-0.7999,-0.8055,-0.8056,0,0,0,0,0,0,-0.8067,-0.8064,-0.8063,-0.8062,-0.8052,-0.804,-0.8038,-0.804,-0.8025,-0.8021,-0.8022,-0.8019,-0.8008,-0.8007,-0.8007,-0.8037,-0.7999,-0.7999,-0.7999,-0.8054,-0.8055,-0.8057,0,0,0,0,0,0,-0.8067,-0.8067,-0.8064,-0.8062,-0.8061,-0.8042,-0.8044,-0.804,-0.804,-0.8022,-0.8019,-0.8026,-0.8007,-0.8007,-0.8019,-0.8036,-0.7999,-0.8,-0.8052,-0.8054,-0.8056,-0.8096,0,0,0,0,0,0,-0.8067,-0.8067,-0.8077,-0.8063,-0.8061,-0.8076,-0.8045,-0.804,-0.804,-0.8037,-0.8025,-0.8021,-0.8006,-0.8019,-0.802,-0.8036,-0.8,-0.8051,-0.8053,-0.8055,-0.8094,-0.8099,-0.8104,0,0,0,0,0,-0.8067,-0.809,-0.8078,-0.8078,-0.8073,-0.8077,-0.8076,-0.8058,-0.8042,-0.8052,-0.804,-0.8022,-0.8033,-0.802,-0.8021,-0.8038,-0.805,-0.8053,-0.8055,-0.8091,-0.8098,-0.8104,0,0,0,0,0,0,-0.8108,-0.8088,-0.8074,-0.8093,-0.8087,-0.8071,-0.8083,-0.8066,-0.8065,-0.8062,-0.8039,-0.8037,-0.8053,-0.8046,-0.8032,-0.8062,-0.8039,-0.8042,-0.8066,-0.8072,-0.8078,-0.8079,-0.8001,0,0,0,0,0,-0.8119,-0.8124,-0.8106,-0.8124,-0.8121,-0.8103,-0.8104,-0.809,-0.8083,-0.8081,-0.807,-0.8065,-0.8067,-0.8069,-0.807,-0.8092,-0.8089,-0.8103,-0.8109,-0.8113,-0.8117,-0.8127,-0.8134,-0.8065,-0.8065,-0.8065,0,0,-0.8142,-0.8131,-0.8136,-0.8132,-0.8125,-0.8131,-0.8101,-0.8108,-0.8112,-0.8082,-0.8093,-0.8085,-0.8077,-0.8094,-0.8101,-0.8089,-0.8134,-0.8117,-0.8121,-0.8121,-0.8131,-0.8137,-0.8143,-0.8067,-0.8067,-0.8067,0,0,-0.8187,-0.8179,-0.8193,-0.8187,-0.8178,-0.8165,-0.8168,-0.8154,-0.8148,-0.8158,-0.8135,-0.814,-0.8144,-0.8139,-0.8138,-0.8179,-0.8162,-0.818,-0.8209,-0.8219,-0.8225,-0.8229,-0.8244,-0.825,-0.8183,-0.8183,-0.8183,0,-0.8217,-0.8224,-0.8203,-0.8211,-0.821,-0.8181,-0.8195,-0.8191,-0.8183,-0.8182,-0.8169,-0.8173,-0.8166,-0.8181,-0.8191,-0.8191,-0.8194,-0.8182,-0.8226,-0.823,-0.8234,-0.8248,-0.8254,-0.8185,-0.8185,-0.8185,-0.8185,0,-0.8262,-0.8267,-0.828,-0.8272,-0.8272,-0.8283,-0.8263,-0.8265,-0.8251,-0.8239,-0.825,-0.824,-0.8238,-0.8241,-0.8227,-0.8254,-0.8247,-0.823,-0.8206,-0.8243,-0.8256,-0.8261,-0.8188,-0.8188,-0.8187,-0.8186,0,0,-0.8334,-0.8313,-0.8318,-0.8313,-0.83,-0.8304,-0.8313,-0.8311,-0.8314,-0.8308,-0.8316,-0.832,-0.8303,-0.8301,-0.8286,-0.8296,-0.8329,-0.8277,-0.8277,-0.8288,-0.8358,-0.8372,-0.8378,-0.8317,-0.8318,-0.8319,-0.8359,0,-0.8377,-0.8392,-0.8372,-0.8392,-0.8396,-0.8368,-0.8376,-0.8369,-0.8358,-0.836,-0.8348,-0.8351,-0.8329,-0.8328,-0.8335,-0.8323,-0.8343,-0.832,-0.8324,-0.8325,-0.8328,-0.8385,-0.84,-0.8438,-0.8364,-0.8365,-0.8365,0,-0.8429,-0.8426,-0.8446,-0.843,-0.8431,-0.8439,-0.8435,-0.8437,-0.8428,-0.8419,-0.8416,-0.8398,-0.8406,-0.8382,-0.8393,-0.8378,-0.8378,-0.8372,-0.8373,-0.8374,-0.8348,-0.8388,-0.845,-0.8456,-0.8373,-0.8372,-0.8372,0,-0.8481,-0.8481,-0.8493,-0.849,-0.8472,-0.8478,-0.8471,-0.846,-0.846,-0.8456,-0.8455,-0.8453,-0.8451,-0.845,-0.8431,-0.8415,-0.8444,-0.8419,-0.8438,-0.8438,-0.8446,-0.8446,-0.851,-0.8445,-0.8445,-0.8445,-0.8444,0,-0.8531,-0.8545,-0.8515,-0.8523,-0.8537,-0.8513,-0.8528,-0.8518,-0.8508,-0.8513,-0.8488,-0.8494,-0.8468,-0.847,-0.8456,-0.8467,-0.8466,-0.846,-0.8456,-0.8463,-0.8464,-0.8464,-0.8461,-0.8446,-0.8446,-0.8445,-0.8445,0,-0.8592,-0.8573,-0.8584,-0.8565,-0.8561,-0.8572,-0.8556,-0.8562,-0.8549,-0.8555,-0.8555,-0.8534,-0.8536,-0.8516,-0.8514,-0.8504,-0.8522,-0.8513,-0.8526,-0.8523,-0.8543,-0.8542,-0.861,-0.8618,-0.8547,-0.8548,-0.8548,0,-0.8626,-0.8636,-0.8618,-0.8619,-0.8613,-0.8615,-0.8614,-0.8591,-0.8591,-0.858,-0.8587,-0.8586,-0.8584,-0.8588,-0.8573,-0.857,-0.8562,-0.8585,-0.8561,-0.8567,-0.8563,-0.8563,-0.8564,-0.8591,-0.8592,-0.8593,-0.8593,0,-0.8689,-0.8678,-0.8678,-0.8674,-0.8673,-0.8669,-0.8663,-0.8665,-0.8639,-0.864,-0.8641,-0.864,-0.8636,-0.8636,-0.863,-0.8623,-0.8604,-0.8601,-0.8605,-0.8613,-0.862,-0.8617,-0.854,-0.86,-0.8599,-0.8599,-0.8598,-0.8598,-0.8738,-0.8745,-0.8733,-0.8733,-0.8725,-0.872,-0.8725,-0.8711,-0.8711,-0.8707,-0.8692,-0.8695,-0.8685,-0.8675,-0.8669,-0.8671,-0.866,-0.8666,-0.8668,-0.867,-0.8674,-0.8618,-0.867,-0.867,-0.867,-0.867,-0.8669,0,-0.88,-0.879,-0.879,-0.8782,-0.8782,-0.8763,-0.8755,-0.8756,-0.8759,-0.875,-0.8748,-0.8749,-0.8748,-0.8732,-0.8728,-0.8733,-0.8724,-0.8733,-0.8733,-0.8732,-0.8684,-0.8681,-0.874,-0.874,-0.874,-0.874,-0.874,-0.874,-0.8832,-0.8843,-0.8831,-0.8837,-0.8828,-0.883,-0.8827,-0.8822,-0.8815,-0.8816,-0.8815,-0.8804,-0.8792,-0.8788,-0.8786,-0.8781,-0.8781,-0.8793,-0.8786,-0.8742,-0.8735,-0.8729,-0.8726,-0.8793,-0.8793,-0.8833,-0.8834,-0.8834]},{"header":{"parameterUnit":"m.s-1","parameterCategory":1,"la1":30.2991,"la2":30.254,"lo1":-89.0895,"lo2":-89.0444,"dy":0.0017,"dx":0.0017,"nx":28,"ny":28,"refTime":"2026-02-06T03:00:00:Z","depth":0,"parameterNumber":3,"parameterNumberName":"V-component_of_WINDS"},"data":[0,0,0,0,0,0,0,0,0,0,0,0,0,0,0,0,0,0,0,0,0,0,0,0,0,0,0,0,0,0,0,0,0,0,0,0,0,0,0,0,0,0,0,0,0,0,0,0,0,0,0,0,0,0,0,0,0,0,-4.7062,-4.7063,0,-4.7109,-4.711,-4.711,-4.7074,-4.7072,-4.7071,-4.7069,-4.7114,-4.7116,-4.7119,0,0,0,0,0,0,0,0,0,0,0,0,0,-4.6938,-4.6941,-4.7062,-4.7063,-4.7064,-4.7109,-4.711,-4.7111,-4.7074,-4.7072,-4.707,-4.7069,-4.7113,-4.7116,-4.7119,0,0,0,0,0,0,0,0,0,0,0,0,0,-4.6989,-4.6942,-4.7062,-4.7051,-4.7051,-4.7109,-4.711,-4.7111,-4.7075,-4.7072,-4.707,-4.7068,-4.7112,-4.7116,-4.712,-4.7191,0,0,-4.7132,-4.7133,0,0,0,0,0,0,0,0,-4.6987,-4.6994,-4.7052,-4.7052,-4.7051,-4.7084,-4.7082,-4.7137,-4.7075,-4.7065,-4.7069,-4.7067,-4.7105,-4.711,-4.7124,-4.7193,-4.7195,-4.7132,-4.7134,-4.7136,-4.7137,0,0,0,0,0,0,0,-4.6983,-4.6992,-4.7081,-4.7053,-4.7053,-4.7043,-4.7047,-4.7093,-4.7098,-4.7066,-4.7064,-4.707,-4.7105,-4.712,-4.7124,-4.7195,-4.7132,-4.7135,-4.7138,-4.7139,-4.7326,-4.7329,0,0,0,0,0,0,-4.6981,-4.6989,-4.7079,-4.7082,-4.7013,-4.7047,-4.7052,-4.7076,-4.7097,-4.7098,-4.7072,-4.7068,-4.7114,-4.712,-4.7126,-4.7211,-4.7136,-4.714,-4.7142,-4.7324,-4.7327,-4.7329,0,0,0,0,0,0,-4.6979,-4.699,-4.7077,-4.7035,-4.7046,-4.7052,-4.7078,-4.7078,-4.7093,-4.7102,-4.7102,-4.7086,-4.7113,-4.712,-4.7175,-4.7212,-4.7142,-4.7145,-4.732,-4.7325,-4.7328,-4.7382,0,0,0,0,0,0,-4.6975,-4.6989,-4.7017,-4.7036,-4.7048,-4.7127,-4.708,-4.708,-4.71,-4.7096,-4.7115,-4.7116,-4.7111,-4.717,-4.7179,-4.7216,-4.7148,-4.7317,-4.7322,-4.7327,-4.7377,-4.7388,-4.7396,0,0,0,0,0,-4.6971,-4.7029,-4.7018,-4.7029,-4.7083,-4.713,-4.7136,-4.713,-4.7103,-4.7131,-4.7137,-4.7116,-4.7207,-4.7176,-4.7186,-4.7225,-4.7315,-4.7321,-4.7326,-4.7373,-4.7386,-4.7396,0,0,0,0,0,0,-4.7012,-4.7031,-4.702,-4.7086,-4.7107,-4.7123,-4.7158,-4.7144,-4.7171,-4.7166,-4.7156,-4.7161,-4.7219,-4.7227,-4.7192,-4.7295,-4.7256,-4.7264,-4.7288,-4.73,-4.7309,-4.7306,-4.7152,0,0,0,0,0,-4.7029,-4.7067,-4.7081,-4.7138,-4.7149,-4.7152,-4.7172,-4.7166,-4.7186,-4.7194,-4.7204,-4.7224,-4.7257,-4.7279,-4.7309,-4.7378,-4.7382,-4.741,-4.742,-4.7427,-4.7435,-4.7472,-4.7485,-4.7349,-4.7349,-4.7348,0,0,-4.7064,-4.7079,-4.7103,-4.7147,-4.7162,-4.72,-4.7159,-4.7201,-4.7229,-4.72,-4.7254,-4.7261,-4.7283,-4.7345,-4.7373,-4.7354,-4.7473,-4.7435,-4.7441,-4.7444,-4.748,-4.7493,-4.7504,-4.7353,-4.7352,-4.7351,0,0,-4.7148,-4.7163,-4.7213,-4.723,-4.7254,-4.7256,-4.7268,-4.7287,-4.7292,-4.7346,-4.7325,-4.7357,-4.7414,-4.7431,-4.7447,-4.7538,-4.752,-4.7548,-4.7598,-4.7635,-4.7646,-4.7655,-4.7689,-4.7701,-4.7555,-4.7555,-4.7555,0,-4.7189,-4.7247,-4.724,-4.7285,-4.7304,-4.7281,-4.7331,-4.7347,-4.738,-4.7393,-4.7371,-4.7443,-4.7456,-4.7523,-4.7545,-4.7558,-4.7571,-4.7546,-4.7645,-4.7654,-4.7663,-4.7695,-4.7707,-4.7558,-4.7558,-4.7558,-4.7557,0,-4.7296,-4.7336,-4.7373,-4.7407,-4.7431,-4.7478,-4.7478,-4.7502,-4.7494,-4.7498,-4.7553,-4.7567,-4.7601,-4.7616,-4.7608,-4.7682,-4.7669,-4.7646,-4.7607,-4.768,-4.7709,-4.7721,-4.7563,-4.7562,-4.7561,-4.756,0,0,-4.7407,-4.7438,-4.7452,-4.7467,-4.7493,-4.7523,-4.7569,-4.7603,-4.7625,-4.7648,-4.7686,-4.7735,-4.7715,-4.7733,-4.7726,-4.7758,-4.7831,-4.7731,-4.7731,-4.775,-4.7914,-4.7932,-4.7946,-4.7819,-4.7821,-4.7823,-4.7912,0,-4.7493,-4.7574,-4.757,-4.7646,-4.7683,-4.7662,-4.7702,-4.7721,-4.7726,-4.7758,-4.7762,-4.7798,-4.7767,-4.7778,-4.7809,-4.7815,-4.7863,-4.7808,-4.7854,-4.7855,-4.785,-4.7961,-4.798,-4.8064,-4.7924,-4.7926,-4.7927,0,-4.7604,-4.7633,-4.7713,-4.7734,-4.775,-4.7786,-4.7818,-4.7848,-4.787,-4.7871,-4.7892,-4.788,-4.7925,-4.7885,-4.7947,-4.791,-4.7928,-4.7934,-4.7937,-4.7941,-4.7896,-4.7969,-4.809,-4.8103,-4.7945,-4.7944,-4.7942,0,-4.7679,-4.7737,-4.7793,-4.7807,-4.7833,-4.7859,-4.787,-4.7889,-4.7911,-4.7938,-4.7952,-4.7983,-4.8001,-4.8025,-4.8022,-4.7992,-4.8086,-4.8044,-4.8088,-4.8088,-4.8109,-4.8108,-4.8235,-4.8119,-4.8119,-4.8119,-4.8119,0,-4.7776,-4.7826,-4.7827,-4.7862,-4.7917,-4.7911,-4.7966,-4.7974,-4.7992,-4.8027,-4.801,-4.8043,-4.8036,-4.8069,-4.8066,-4.8119,-4.8127,-4.8129,-4.8128,-4.8131,-4.8131,-4.8143,-4.8138,-4.8122,-4.8122,-4.8121,-4.812,0,-4.7868,-4.7871,-4.7931,-4.7951,-4.7957,-4.7997,-4.8013,-4.8046,-4.8049,-4.8094,-4.8104,-4.8109,-4.8147,-4.8146,-4.8189,-4.8187,-4.8252,-4.8244,-4.8246,-4.8244,-4.8288,-4.8284,-4.8428,-4.8447,-4.8318,-4.8319,-4.832,0,-4.793,-4.7969,-4.7993,-4.8017,-4.803,-4.8067,-4.809,-4.8085,-4.8109,-4.8137,-4.8166,-4.8202,-4.8231,-4.8293,-4.83,-4.8332,-4.8325,-4.8373,-4.8329,-4.8332,-4.8327,-4.8325,-4.8329,-4.8382,-4.8383,-4.8384,-4.8385,0,-4.8041,-4.8041,-4.8074,-4.8109,-4.8136,-4.8162,-4.8187,-4.8206,-4.8204,-4.8232,-4.8271,-4.8294,-4.8338,-4.8375,-4.8406,-4.8417,-4.8401,-4.8399,-4.8411,-4.8415,-4.8415,-4.8417,-4.827,-4.8396,-4.8395,-4.8394,-4.8394,-4.8393,-4.8121,-4.8154,-4.8177,-4.8215,-4.8233,-4.8257,-4.8289,-4.8297,-4.833,-4.8367,-4.8362,-4.8406,-4.8426,-4.8467,-4.8481,-4.8515,-4.8498,-4.8515,-4.8519,-4.8524,-4.8529,-4.8409,-4.852,-4.852,-4.852,-4.8519,-4.8519,0,-4.8231,-4.8245,-4.828,-4.8316,-4.8346,-4.8329,-4.8356,-4.8381,-4.8421,-4.8442,-4.8472,-4.8517,-4.8553,-4.8563,-4.8597,-4.8622,-4.8616,-4.8631,-4.863,-4.8633,-4.8542,-4.8529,-4.8636,-4.8636,-4.8636,-4.8636,-4.8636,-4.8636,-4.8292,-4.8349,-4.8351,-4.8416,-4.8429,-4.8474,-4.849,-4.8512,-4.8529,-4.8581,-4.8611,-4.8618,-4.8635,-4.867,-4.8702,-4.8704,-4.8717,-4.8736,-4.8735,-4.865,-4.8639,-4.8628,-4.8615,-4.8739,-4.8739,-4.8823,-4.8824,-4.8824]}]]